Bedford, Massachusetts, United States (01730)
Lat: 42.49N, Lon: 71.28W
Wx Zone: MAZ005
Local Info
Past Weather Observations for Tuesday, April 26, 2016

NOTE: This archive is for the closest National Weather Service station to Bedford. Information may differ from the station used for current weather conditions.

Click here for Long-term Archive

Time Weather Temperature Dewpoint Humidity Pressure Winds Precip Visibility
23:56
Overcast
34°F / 1°C 32°F / 0°C 93% 29.89 in
(1012 mb)
SW 3.5 mph
(SW 6 kph)
- 10SM
23:42
Mostly Cloudy
34°F / 1°C 34°F / 1°C 100% 29.89 in
(1012 mb)
Calm - 10SM
22:56
Clear
37°F / 3°C 34°F / 1°C 87% 29.89 in
(1012 mb)
SSW 3.5 mph
(SSW 6 kph)
- 10SM
22:48
Partly Cloudy
37°F / 3°C 34°F / 1°C 87% 29.89 in
(1012 mb)
Calm - 10SM
21:56
Overcast
37°F / 3°C 34°F / 1°C 87% 29.89 in
(1012 mb)
Calm - 10SM
20:56
Overcast
37°F / 3°C 34°F / 1°C 87% 29.89 in
(1012 mb)
NW 3.5 mph
(NW 6 kph)
- 10SM
19:56
Overcast
37°F / 3°C 34°F / 1°C 87% 29.86 in
(1011 mb)
N 3.5 mph
(N 6 kph)
- 10SM
18:56
Overcast
37°F / 3°C 34°F / 1°C 87% 29.83 in
(1010 mb)
NE 4.6 mph
(NE 7 kph)
- 10SM
18:22
Overcast
37°F / 3°C 34°F / 1°C 87% 29.83 in
(1010 mb)
NE 6.9 mph
(NE 11 kph)
- 10SM
17:56
Overcast
37°F / 3°C 34°F / 1°C 87% 29.83 in
(1010 mb)
N 9.2 mph
(N 15 kph)
- 10SM
17:46
Overcast
37°F / 3°C 34°F / 1°C 87% 29.83 in
(1010 mb)
NNE 6.9 mph
(NNE 11 kph)
- 10SM
17:34
Overcast
37°F / 3°C 34°F / 1°C 87% 29.83 in
(1010 mb)
NNE 4.6 mph
(NNE 7 kph)
- 10SM
17:05
Overcast
37°F / 3°C 36°F / 2°C 93% 29.83 in
(1010 mb)
N 5.8 mph
(N 9 kph)
- 10SM
16:56
Overcast
37°F / 3°C 34°F / 1°C 87% 29.8 in
(1009 mb)
N 5.8 mph
(N 9 kph)
- 10SM
15:56
Overcast
37°F / 3°C 36°F / 2°C 93% 29.8 in
(1009 mb)
N 6.9 mph
(N 11 kph)
- 10SM
15:47
Overcast
37°F / 3°C 36°F / 2°C 93% 29.77 in
(1008 mb)
N 6.9 mph
(N 11 kph)
- 10SM
15:39
Overcast
37°F / 3°C 36°F / 2°C 93% 29.77 in
(1008 mb)
NNE 6.9 mph
(NNE 11 kph)
- 10SM
15:10
Overcast
Fog And Mist
37°F / 3°C 36°F / 2°C 93% 29.77 in
(1008 mb)
NE 8.1 mph
(NE 13 kph)
- 5SM
14:56
Overcast
Fog And Mist
37°F / 3°C 34°F / 1°C 87% 29.77 in
(1008 mb)
N 10.4 mph
(N 17 kph)
- 4SM
13:56
Overcast
37°F / 3°C 36°F / 2°C 93% 29.77 in
(1008 mb)
NE 10.4 mph
(NE 17 kph)
- 7SM
12:56
Overcast
39°F / 4°C 36°F / 2°C 87% 29.77 in
(1008 mb)
NE 12.7 mph
(NE 20 kph)
0.01 in
(0.25 mm)
10SM
12:42
Overcast
Light Rain
39°F / 4°C 36°F / 2°C 87% 29.77 in
(1008 mb)
NE 9.2 mph
(NE 15 kph)
0.01 in
(0.25 mm)
10SM
12:10
Overcast
Light Rain
39°F / 4°C 37°F / 3°C 93% 29.77 in
(1008 mb)
NE 10.4 mph
(NE 17 kph)
0.00 in
(0.00 mm)
10SM
11:56
Overcast
Light Rain
39°F / 4°C 37°F / 3°C 93% 29.77 in
(1008 mb)
ENE 11.5 mph
(ENE 19 kph)
0.17 in
(4.32 mm)
5SM
11:52
Overcast
Light Rain
39°F / 4°C 37°F / 3°C 93% 29.77 in
(1008 mb)
NE 9.2 mph
(NE 15 kph)
0.16 in
(4.06 mm)
5SM
11:35
Overcast
Rain
39°F / 4°C 37°F / 3°C 93% 29.8 in
(1009 mb)
NE 9.2 mph
(NE 15 kph)
0.12 in
(3.05 mm)
2 1/2SM
11:23
Overcast
Rain
39°F / 4°C 37°F / 3°C 93% 29.8 in
(1009 mb)
NNE 8.1 mph
(NNE 13 kph)
0.08 in
(2.03 mm)
3SM
11:15
Overcast
Rain
39°F / 4°C 36°F / 2°C 87% 29.77 in
(1008 mb)
NE 12.7 mph
(NE 20 kph)
0.06 in
(1.52 mm)
2 1/2SM
11:03
Overcast
Light Rain
39°F / 4°C 36°F / 2°C 87% 29.8 in
(1009 mb)
Variable 5.8 mph
(Variable 9 kph)
0.01 in
(0.25 mm)
5SM
10:56
Overcast
Light Rain
39°F / 4°C 36°F / 2°C 87% 29.77 in
(1008 mb)
NE 10.4 mph
(NE 17 kph)
0.06 in
(1.52 mm)
4SM
10:53
Overcast
Light Rain
39°F / 4°C 36°F / 2°C 87% 29.77 in
(1008 mb)
NE 9.2 mph
(NE 15 kph)
0.05 in
(1.27 mm)
4SM
09:56
Overcast
Light Rain
41°F / 5°C 36°F / 2°C 81% 29.8 in
(1009 mb)
E 10.4 mph
(E 17 kph)
0.03 in
(0.76 mm)
3SM
08:56
Overcast
43°F / 6°C 30°F / -1°C 61% 29.8 in
(1009 mb)
ENE 11.5 mph
(ENE 19 kph)
- 10SM
07:56
Overcast
45°F / 7°C 28°F / -2°C 53% 29.83 in
(1010 mb)
E 11.5 mph
(E 19 kph)
- 10SM
06:56
Overcast
45°F / 7°C 28°F / -2°C 53% 29.86 in
(1011 mb)
E 12.7 mph
(E 20 kph)
- 10SM
05:56
Overcast
45°F / 7°C 27°F / -3°C 49% 29.86 in
(1011 mb)
E 15 mph
(E 24 kph)
- 10SM
04:56
Overcast
45°F / 7°C 27°F / -3°C 49% 29.89 in
(1012 mb)
E 16.1 mph
(E 26 kph)
0.00 in
(0.00 mm)
10SM
03:56
Overcast
46°F / 8°C 28°F / -2°C 50% 29.89 in
(1012 mb)
E 9.2 mph
(E 15 kph)
- 10SM
02:56
Mostly Cloudy
46°F / 8°C 25°F / -4°C 43% 29.89 in
(1012 mb)
ENE 13.8 mph
(ENE 22 kph)
- 10SM
01:56
Overcast
48°F / 9°C 21°F / -6°C 34% 29.89 in
(1012 mb)
ENE 12.7 mph
(ENE 20 kph)
- 10SM
00:56
Mostly Cloudy
46°F / 8°C 34°F / 1°C 62% 29.89 in
(1012 mb)
Calm - 10SM
Time Weather Temperature Dewpoint Humidity Pressure Winds Precip Visibility


Weather for websites

WeatherForYou.com, LLC is not responsible for any damages or problems caused by this service. Current weather conditions are obtained from the closest station including government and personal stations which may have varying degrees of accuracy. Weather forecasts are derived from the NOAA NDFD. Like all things, this site belongs to Jesus Christ... He just trusts us to maintain it. If you have any questions or comments email webmaster@weatherforyou.com

Copyright © 2016, WeatherForYou.com LLC. All rights reserved.